Location: Dehesa de la Cepeda
(40.6574°N, 4.3013°W)
Time: 11:12:52
(UTC+00:00)

Vanguard 2 Rocket - Pass Details

Date: 29 October 2021
Orbit: 555 x 3324 km, 32.9° (Epoch: 09 December)

Event Time Altitude Azimuth Distance (km) Brightness Sun altitude
Exits shadow 04:10:52 26° 220° (SW) 4,515 10.0 -29.5°
Maximum altitude 04:20:41 49° 164° (SSE) 2,882 9.3 -27.7°
Drops below altitude 10° 04:31:10 10° 94° (E) 3,915 11.1 -25.7°
Sets 04:33:51 0° 89° (E) 4,591 11.9 -25.2°
